Wind_Speed
62 61 60 59 58 57 56 54 53 51 50 49 48 47 46 45 44 43 43 42 41 40 39 38 38 38 38 37 37 37 36 36 35 35 35 35 35 35 34 34 35 35 35 34 33 32 30 28 26 25 23 21 19 18 18 18 18 19 19 20 19 19 18 18 16 15 15 16 16 15 15 16 17 16 14 13 13 12 10 7 5 6 5 2 3 7 9 5
64 64 63 62 61 60 59 58 56 55 54 52 51 50 49 48 47 46 45 45 44 43 42 41 41 40 40 40 40 39 38 38 38 37 38 37 37 37 37 36 36 36 35 34 33 32 30 29 27 25 23 21 20 19 18 19 19 20 21 21 21 21 20 19 18 17 17 17 17 16 16 16 17 16 16 14 13 12 10 8 7 6 4 2 4 7 8 5
65 65 65 64 63 62 61 60 59 58 57 55 54 53 52 51 50 49 48 47 47 46 45 44 43 43 43 42 42 41 41 40 40 40 40 39 39 39 39 38 38 36 35 34 33 32 30 29 27 25 24 22 20 20 19 19 20 21 22 22 23 23 22 21 20 19 18 18 18 17 17 17 17 17 17 16 14 12 11 9 8 7 6 3 6 8 8 6
63 65 66 66 65 64 64 63 62 61 59 58 57 56 55 54 53 52 51 51 50 49 48 47 46 46 45 45 45 44 43 43 43 42 42 41 41 41 40 40 39 37 35 34 33 32 30 29 27 25 24 22 21 20 20 19 20 21 23 23 24 24 24 23 22 21 20 19 19 18 18 17 17 17 18 18 15 13 12 10 9 9 7 5 8 11 9 7
60 62 64 66 66 66 65 65 64 63 62 61 60 59 58 57 56 55 54 53 52 51 51 50 49 49 48 48 47 47 46 45 45 44 44 43 43 43 41 40 39 37 35 33 32 31 30 29 27 26 24 23 22 21 20 20 20 21 23 24 24 25 26 25 24 24 22 21 20 19 19 18 18 18 18 18 15 13 13 12 10 9 8 7 10 11 9 9
60 60 61 63 64 66 66 66 65 64 64 63 62 61 60 59 58 58 57 56 55 54 53 53 52 51 51 50 50 49 48 48 47 46 46 45 44 43 42 41 39 37 35 33 32 30 30 29 27 26 24 23 22 21 21 20 20 21 22 24 25 26 26 26 26 26 24 22 21 20 20 19 19 18 18 18 16 14 13 11 10 10 10 10 11 12 11 10
60 60 59 60 61 62 64 65 65 65 64 64 63 63 62 61 60 60 59 58 57 57 56 55 54 54 53 53 52 52 51 50 49 48 47 46 45 43 42 40 38 36 34 33 31 30 30 29 27 26 25 24 22 21 21 21 21 21 22 24 25 26 26 26 27 27 25 24 22 21 21 20 20 19 18 18 17 15 13 12 11 10 10 11 11 12 12 9
60 60 60 59 59 59 60 62 63 64 64 64 64 63 63 62 62 61 61 60 59 58 58 57 56 56 55 55 54 53 52 51 50 49 48 46 45 43 42 39 36 35 34 32 31 30 30 29 28 26 25 24 23 22 22 22 21 21 22 23 25 25 26 26 27 27 27 25 24 22 21 21 20 20 19 18 16 15 15 13 11 9 8 9 10 9 9 7
60 59 60 59 59 58 58 58 59 61 62 63 63 63 63 62 62 62 61 61 60 59 59 58 57 57 56 55 55 54 53 52 51 49 48 46 44 43 41 38 36 34 33 33 32 31 29 29 28 26 25 24 24 23 23 22 21 22 23 23 24 25 26 26 27 28 28 27 25 23 22 21 21 20 19 18 16 16 16 13 11 9 8 9 9 8 6 5
60 59 59 59 59 59 58 57 56 57 58 59 60 61 61 61 61 61 61 60 59 59 58 58 57 56 56 55 55 54 53 52 50 49 47 45 43 42 40 37 35 33 33 33 32 30 29 29 28 27 26 25 24 24 23 22 22 24 24 23 24 24 26 26 27 28 28 28 26 24 23 21 20 21 19 17 17 17 15 13 10 8 8 9 10 9 6 7
60 59 59 59 59 59 58 57 56 55 55 55 56 57 58 59 59 59 59 59 58 57 57 56 56 55 55 54 53 52 52 51 49 48 46 44 42 40 39 36 34 34 34 33 31 30 30 29 28 27 26 25 24 24 24 23 23 24 24 23 23 24 25 26 27 28 29 29 27 25 23 22 21 21 21 19 19 18 15 13 10 7 8 9 10 10 7 9
59 59 58 58 58 58 58 57 56 55 54 54 53 53 53 54 55 55 55 56 55 55 55 55 54 54 54 53 52 51 51 50 48 46 44 42 41 39 38 36 35 35 35 33 32 31 30 29 28 27 26 25 24 24 24 23 23 24 24 24 24 24 25 26 27 28 30 30 29 26 24 23 21 21 22 22 20 18 16 13 10 7 9 10 11 10 9 10
57 57 57 57 57 57 57 56 56 56 55 54 53 52 51 51 51 51 51 51 51 51 51 52 52 52 52 52 51 51 50 49 47 45 43 42 40 39 38 37 36 36 35 33 32 31 29 28 28 27 27 26 25 24 23 23 23 23 23 24 24 24 25 26 27 28 30 30 30 27 25 24 22 22 23 22 20 19 17 14 11 10 11 12 12 11 12 12
55 55 56 56 56 56 56 55 55 55 55 54 53 52 51 50 49 49 48 48 48 47 48 48 48 49 50 50 50 50 49 48 47 45 43 42 40 40 39 38 37 37 36 33 32 30 29 28 28 28 27 26 25 24 24 23 23 23 23 24 25 26 26 26 26 28 30 31 30 29 27 25 23 23 23 22 20 18 16 14 13 12 14 14 14 14 15 13
52 53 53 54 54 54 54 54 54 54 54 54 53 53 52 51 50 49 48 47 47 46 46 46 47 47 48 48 48 47 47 47 46 45 43 42 41 41 41 39 38 38 36 34 32 31 30 29 28 28 27 26 26 25 24 24 23 23 23 24 26 26 26 26 26 28 30 31 31 30 28 26 24 24 24 23 19 17 16 15 14 14 15 17 17 17 16 14
49 50 51 52 52 52 53 53 53 52 52 52 52 52 51 51 50 49 48 47 47 46 46 46 46 46 47 46 46 46 45 45 44 44 43 42 42 42 42 40 39 39 37 35 33 32 30 29 29 28 27 27 26 26 25 24 23 23 23 24 26 26 25 26 26 27 30 32 32 30 29 27 26 26 25 23 20 17 16 16 15 14 16 20 19 18 16 14
46 47 48 49 50 51 51 51 51 51 51 50 50 50 50 50 49 49 48 47 47 47 46 47 46 46 46 45 45 45 44 44 43 42 41 42 42 43 42 41 40 39 37 36 34 32 30 30 29 28 28 28 27 27 26 25 24 23 23 24 25 25 25 25 26 27 29 32 33 31 29 28 27 27 27 25 21 16 15 16 15 14 15 19 20 19 16 14
43 44 46 47 48 48 49 49 49 49 49 49 49 48 48 48 48 47 47 47 47 47 47 47 46 46 45 44 44 44 43 42 41 41 41 41 41 42 41 39 39 39 37 36 34 32 31 31 30 29 29 28 28 28 27 25 25 24 24 23 24 25 25 25 25 26 29 32 34 33 31 29 28 29 29 27 23 17 14 15 15 14 15 18 19 17 13 13
40 41 43 44 45 45 46 46 47 46 47 47 47 47 47 46 46 46 46 46 46 46 46 46 46 45 45 44 43 43 42 41 40 40 40 40 40 40 39 39 39 38 37 36 34 33 32 32 31 30 29 29 30 30 28 26 26 25 24 24 25 26 26 26 25 26 28 31 34 34 32 30 28 29 30 28 24 17 14 15 14 16 18 19 18 16 13 14
38 38 39 40 41 42 43 43 43 44 44 45 45 45 45 44 44 44 45 45 45 45 45 45 45 44 43 43 43 42 41 41 40 39 39 39 39 39 39 39 39 38 36 35 34 33 34 34 32 30 29 30 30 29 28 27 27 26 25 26 26 27 26 26 26 26 28 30 34 36 34 32 29 29 30 28 25 18 15 15 15 18 20 19 18 17 14 14
35 35 36 37 38 39 39 40 41 41 42 42 42 42 42 43 43 43 43 43 44 44 44 44 43 43 42 42 42 41 41 40 39 39 39 39 39 39 38 38 37 36 34 33 34 34 34 33 30 29 30 31 30 29 29 29 28 27 27 27 28 28 27 27 26 26 27 30 34 36 36 33 30 29 29 28 25 19 16 16 17 19 21 20 19 17 15 17
32 32 33 34 35 36 36 37 38 38 39 39 39 40 40 41 41 41 41 41 42 42 42 42 42 41 41 41 41 40 40 39 39 39 39 39 38 38 37 36 35 34 33 34 35 34 32 29 28 30 32 32 31 31 30 30 29 28 28 28 29 29 28 27 27 27 27 29 33 36 37 35 32 30 29 28 25 20 18 17 19 21 20 20 19 17 18 21
30 30 30 31 32 32 33 34 34 35 36 36 37 37 38 39 39 39 39 39 39 39 39 40 40 39 39 39 40 39 39 39 39 39 39 38 38 37 36 35 34 33 34 35 34 32 29 28 30 32 32 31 31 31 30 30 29 28 29 29 29 29 29 28 28 28 27 29 31 34 36 36 33 30 29 28 25 23 21 19 20 21 19 19 20 19 20 22
26 27 27 28 28 29 29 30 31 32 33 33 34 35 35 36 36 36 37 37 37 37 37 37 37 38 38 38 39 39 39 39 39 38 38 38 38 37 35 34 34 34 35 34 32 30 29 31 33 32 31 31 31 31 31 30 29 29 29 29 30 30 30 29 28 28 27 28 30 33 35 36 34 30 28 27 26 26 24 19 19 19 17 18 20 21 20 18
23 23 24 25 25 26 27 28 28 29 30 31 31 32 33 34 34 35 35 35 36 36 37 37 37 37 38 38 38 38 37 37 38 37 37 38 37 36 35 35 35 35 35 33 31 31 32 34 33 31 31 31 31 32 31 31 30 30 30 30 30 31 30 30 29 28 27 27 29 32 34 34 33 30 28 27 27 28 25 21 18 16 18 20 22 22 21 20
20 21 22 23 23 24 25 26 26 27 28 29 30 31 32 33 34 34 35 35 36 37 37 37 38 38 38 38 38 37 37 37 37 37 37 37 37 37 36 35 35 35 35 33 32 32 34 33 31 30 31 31 31 31 31 31 30 30 30 30 30 30 30 30 29 28 27 27 29 32 34 34 32 31 29 28 30 31 28 25 19 13 15 19 22 22 22 23
19 20 21 22 22 23 23 24 25 26 27 28 29 30 32 32 33 34 34 35 36 36 37 38 38 38 38 38 38 38 38 38 37 37 38 38 37 37 37 36 36 36 35 34 33 33 33 31 30 30 30 30 31 30 30 30 30 30 30 30 30 30 30 30 29 29 28 28 29 31 35 36 33 31 31 30 32 33 32 29 24 19 19 17 20 24 25 24
18 19 19 20 20 21 21 22 23 24 25 26 27 28 30 30 31 32 32 33 34 35 35 36 36 36 37 37 38 37 37 37 37 37 37 37 37 37 36 36 35 35 35 34 33 32 31 29 28 29 30 30 30 30 29 29 29 29 29 29 29 29 29 29 29 29 28 28 29 31 34 36 35 33 32 31 33 35 34 31 28 25 22 18 19 25 25 21
16 16 16 17 17 18 19 19 20 21 22 23 24 25 26 27 28 29 29 30 31 32 33 33 33 34 34 34 35 35 34 34 35 35 36 36 36 36 35 35 34 35 34 33 31 31 31 30 30 31 31 31 30 29 29 28 27 27 26 27 27 27 28 29 30 30 29 29 30 32 34 36 36 34 32 33 34 36 36 34 31 26 23 22 22 25 23 19
13 14 14 14 14 15 15 15 16 17 19 20 21 22 24 25 26 27 28 30 31 31 31 32 32 32 32 32 32 32 32 32 33 33 34 34 33 33 33 33 33 34 34 32 31 32 32 33 33 34 33 31 30 29 27 26 25 23 23 24 26 27 28 29 30 31 31 30 31 33 34 36 37 33 33 35 36 38 38 36 35 29 24 26 28 27 23 20
11 11 11 11 10 10 10 11 11 12 13 15 16 17 19 21 23 24 26 28 30 31 32 32 33 33 33 32 32 32 32 32 32 32 32 31 31 31 31 31 32 33 33 31 32 33 33 34 35 34 32 30 28 27 25 23 21 20 21 23 26 28 29 30 31 31 31 31 32 34 35 37 38 34 33 36 38 39 39 38 37 34 28 28 32 31 26 22
10 9 8 7 7 6 6 5 5 6 7 8 10 12 14 16 18 20 22 24 26 28 30 31 33 34 34 34 34 33 32 32 32 31 31 30 30 31 31 31 32 32 32 31 32 33 34 35 34 32 29 27 27 26 23 21 20 21 22 24 26 27 29 30 31 32 33 33 34 36 37 37 39 37 34 37 39 40 40 39 38 38 34 30 31 31 29 27
12 11 10 9 8 7 5 4 3 2 2 4 6 8 10 12 14 16 18 20 22 25 26 28 30 32 34 35 35 35 34 33 33 32 31 31 31 31 31 31 31 32 31 30 31 33 34 34 32 29 27 26 27 25 23 22 22 23 24 25 26 27 30 32 33 34 34 34 35 37 38 38 38 38 35 37 41 42 41 39 38 40 38 32 30 28 27 27
13 12 11 10 9 7 6 5 3 2 1 2 3 5 7 9 11 12 14 16 18 21 23 25 28 30 32 34 35 36 36 35 34 33 32 32 32 32 32 32 33 33 32 31 32 34 35 34 32 29 28 28 28 25 24 24 24 25 26 26 27 28 30 32 33 34 34 35 36 37 39 39 38 38 37 38 42 45 43 37 36 39 39 36 32 27 24 27
13 12 11 9 8 7 6 5 4 4 4 5 5 6 7 8 8 9 10 12 14 16 19 22 25 27 29 31 33 35 37 36 35 34 33 33 33 33 33 33 34 33 32 31 34 36 35 34 32 31 30 29 27 26 25 26 26 28 28 27 28 30 31 33 34 34 35 36 37 38 40 41 40 39 39 39 41 46 43 35 33 36 37 36 33 29 29 32
13 12 11 10 9 8 7 6 6 6 6 7 7 8 9 9 9 9 9 10 11 13 15 18 21 24 26 28 30 33 35 37 37 35 34 34 34 34 34 35 34 33 32 33 35 36 34 33 32 30 30 28 27 27 27 28 28 28 28 29 31 31 32 34 35 35 36 37 38 40 41 43 42 40 40 39 40 43 40 33 33 34 34 34 34 34 36 36
14 13 12 11 11 10 9 8 8 8 8 8 9 9 11 11 11 11 10 9 10 11 12 14 16 20 23 25 28 30 32 35 37 37 37 35 35 35 35 35 35 33 33 35 36 35 35 34 33 32 31 29 29 29 29 29 29 28 29 30 32 32 32 35 37 37 37 38 39 41 43 44 44 42 41 39 39 39 36 33 33 34 34 34 35 37 39 38
14 13 12 12 11 10 10 10 10 10 10 10 10 10 11 12 13 13 12 12 11 10 10 11 13 15 18 21 24 27 29 32 35 37 38 36 35 35 35 35 34 33 33 34 35 36 36 35 33 33 32 31 31 31 30 30 30 29 30 32 32 33 34 36 38 38 39 39 40 41 43 45 46 45 42 40 39 37 35 34 34 34 35 36 38 40 40 38
13 12 12 11 11 10 10 10 10 10 11 11 11 12 13 14 14 15 15 14 13 12 10 9 9 11 14 17 20 24 27 29 31 34 37 37 36 35 35 35 34 34 34 35 37 37 35 34 34 33 33 33 33 32 31 31 31 30 31 32 33 34 35 36 39 40 40 40 41 42 43 46 47 46 44 42 40 37 38 38 35 34 37 39 40 40 37 35
12 11 11 11 10 10 10 10 10 10 11 12 12 13 15 16 15 16 17 17 16 15 13 11 8 7 10 13 16 20 23 26 28 31 34 36 37 36 35 35 35 35 35 37 37 36 35 35 35 35 34 34 33 32 32 32 32 31 32 33 34 35 35 37 39 40 40 40 41 42 44 46 47 47 46 43 41 38 39 42 39 37 39 40 38 36 35 33
12 11 10 10 10 10 10 10 10 10 11 12 13 14 15 16 16 17 17 18 18 18 16 14 11 8 6 9 13 16 20 23 26 28 30 33 36 38 37 36 35 36 36 37 37 36 35 35 35 35 35 35 33 32 33 33 33 32 33 35 35 36 37 38 39 40 40 40 41 43 44 46 48 48 47 45 43 40 40 44 43 39 38 38 35 33 33 33
11 11 10 10 10 10 10 10 11 11 11 12 13 14 15 16 17 18 18 19 19 19 19 17 15 12 8 5 8 12 16 20 23 26 27 30 33 37 39 38 37 37 37 37 37 36 36 36 36 36 36 35 34 33 34 33 32 31 33 35 35 37 38 39 40 41 41 41 42 42 44 46 48 49 48 46 44 42 41 46 46 40 38 39 37 34 33 33
10 9 9 9 9 10 10 10 11 11 12 13 13 14 14 15 16 18 18 19 19 19 20 20 18 16 12 8 3 7 12 16 20 23 25 26 29 33 36 38 38 37 36 37 37 37 38 38 38 38 36 35 34 33 33 32 31 31 33 35 36 37 38 40 41 41 40 41 42 43 44 46 47 49 50 47 44 43 43 46 48 43 39 40 39 35 34 34
8 8 7 7 8 9 10 10 11 12 12 13 14 14 14 15 16 17 18 19 19 19 20 20 20 18 16 12 7 2 7 12 16 18 21 23 25 28 31 34 36 36 36 36 36 37 37 37 37 36 35 34 33 33 33 31 30 31 33 35 36 37 38 39 40 39 39 40 41 43 44 45 46 48 51 49 46 45 45 46 48 45 42 42 39 34 35 35
6 6 6 6 7 8 9 10 11 12 13 14 14 15 15 15 15 16 17 18 19 20 20 20 20 20 18 16 12 6 3 8 12 15 17 19 21 24 26 29 32 34 35 35 35 35 35 35 35 35 34 34 34 34 32 30 30 31 33 34 36 37 38 38 38 38 39 40 41 42 44 45 46 48 51 51 49 47 47 46 46 44 43 45 41 35 36 37
3 4 4 5 6 8 9 10 11 13 14 14 15 15 15 15 15 15 16 17 18 19 20 20 19 20 19 18 15 12 7 4 8 12 15 16 17 19 21 24 27 30 33 34 35 34 34 35 35 34 34 34 34 33 31 30 31 31 33 35 36 37 37 37 37 38 39 39 40 42 44 45 46 48 50 52 51 49 48 47 47 44 43 46 45 40 39 40
1 1 3 4 6 7 9 10 11 13 14 15 16 16 16 16 16 16 16 16 17 18 19 19 19 19 19 18 17 15 12 7 4 9 13 15 15 16 18 20 23 26 29 31 33 34 34 34 34 34 33 33 33 32 32 32 32 33 35 36 36 37 37 37 38 38 37 38 41 43 44 45 47 47 49 52 52 51 49 48 49 46 42 45 48 46 44 45
2 2 3 4 6 7 9 10 11 12 13 15 16 16 17 17 17 17 17 16 16 17 18 18 19 19 18 18 17 16 14 11 7 5 9 13 15 16 17 18 20 22 25 27 30 32 32 33 33 33 33 32 32 32 32 33 34 35 36 37 37 37 37 37 38 38 37 38 41 43 44 45 46 47 48 51 53 52 50 49 50 49 44 43 46 48 49 49
5 5 6 6 7 8 9 10 11 12 13 14 15 16 17 18 18 18 18 18 17 17 17 18 18 19 19 18 17 17 16 14 12 8 6 9 14 17 17 18 19 20 22 24 27 28 30 31 32 32 32 31 31 31 32 33 35 37 37 38 38 37 37 37 37 38 38 38 40 41 42 44 46 47 48 50 52 54 53 52 52 52 49 44 42 44 48 51
8 8 8 9 9 9 10 10 11 12 13 14 15 16 16 17 18 19 19 19 19 18 18 18 18 18 19 19 18 17 16 15 14 12 9 6 9 14 17 19 19 19 20 22 24 26 29 30 31 31 31 32 32 31 31 33 35 37 38 39 39 38 37 37 37 37 37 37 39 39 40 43 47 48 49 50 52 54 55 55 54 54 53 49 43 41 44 48
11 11 11 11 11 12 12 12 12 13 13 14 15 16 16 17 18 18 19 19 19 19 19 19 18 18 18 19 19 18 17 16 15 14 12 9 6 8 14 18 20 20 21 22 23 25 27 29 30 30 31 31 32 32 32 33 34 36 38 39 40 39 38 37 38 37 37 37 38 38 40 43 46 48 49 50 52 54 56 57 56 54 54 52 48 43 42 44
15 15 14 14 14 14 14 14 13 14 14 15 15 16 16 17 17 18 19 19 19 19 20 19 19 19 19 19 18 18 17 16 15 14 13 11 9 6 7 13 18 21 22 23 24 25 26 28 29 30 30 31 31 32 32 33 36 37 39 40 40 39 38 38 38 38 37 37 37 37 39 42 44 45 48 50 52 53 55 57 57 55 54 53 51 47 44 43
Wind_Direction
243 243 244 244 245 245 246 247 248 249 250 251 252 253 254 255 257 258 259 260 261 262 263 264 265 266 268 269 270 271 273 275 277 279 281 283 285 286 288 290 292 294 295 296 297 297 297 296 294 292 288 284 278 269 262 255 248 242 237 234 231 228 227 223 223 223 224 224 224 224 224 226 226 228 230 227 228 227 227 230 223 228 234 249 273 275 272 302
244 244 244 245 245 245 246 247 248 248 249 250 251 252 254 255 256 257 258 259 260 261 263 264 265 266 267 268 270 271 273 275 277 279 280 282 284 286 288 290 291 293 293 293 294 294 293 292 290 288 284 280 274 267 260 253 247 241 236 233 230 228 226 224 223 222 222 222 223 223 224 226 225 224 225 225 228 230 235 233 221 228 251 258 235 260 270 299
244 244 244 245 245 246 246 247 248 248 249 250 251 252 253 254 255 256 258 259 260 261 262 263 264 265 266 268 269 271 272 274 276 278 279 281 283 285 287 288 290 290 291 291 291 291 290 289 287 284 281 276 271 265 258 251 246 241 236 233 230 228 226 225 222 221 221 220 220 222 224 227 224 219 217 218 225 234 239 236 227 232 251 255 238 257 265 287
244 244 244 245 245 246 246 247 248 248 249 250 251 252 253 254 255 256 257 258 259 260 261 263 264 265 266 267 268 270 272 273 275 277 279 280 282 284 285 287 288 288 288 288 288 287 286 284 283 280 277 273 268 263 257 251 245 241 237 234 230 228 227 225 222 221 220 219 218 220 224 226 225 218 213 214 220 234 239 235 235 234 237 238 243 256 259 278
245 245 244 245 245 245 246 247 248 249 249 250 251 252 253 254 255 256 257 258 259 260 261 262 263 265 266 267 268 270 271 273 275 276 278 279 281 282 284 285 286 286 286 285 284 283 282 280 279 277 273 269 265 261 256 251 246 242 238 235 232 230 228 225 222 221 220 218 217 218 222 224 225 221 215 214 216 230 235 229 233 233 227 226 237 253 262 282
246 246 245 245 245 245 246 246 247 248 249 250 251 252 253 254 255 256 257 258 259 260 261 262 263 264 266 267 268 269 270 272 274 275 276 278 279 281 282 282 283 284 283 282 281 279 278 277 275 272 269 267 263 259 255 251 246 243 239 236 233 231 230 226 222 221 219 217 216 216 220 222 223 222 219 216 216 227 231 222 228 230 226 229 238 254 269 279
247 246 246 246 246 246 246 246 247 248 249 250 251 252 253 254 255 256 257 258 259 260 261 262 263 264 265 267 268 269 270 271 273 274 275 276 277 278 279 280 280 280 280 279 277 275 274 273 271 269 267 265 262 258 254 251 246 243 240 237 235 232 231 228 224 221 218 216 216 216 219 221 221 221 221 219 220 228 225 218 222 228 229 235 245 262 274 271
247 247 247 247 247 247 247 247 247 247 248 249 250 251 252 253 254 256 257 258 259 260 261 262 263 264 265 266 267 268 269 270 271 272 273 275 275 276 277 277 277 277 276 275 273 271 271 270 269 268 266 264 261 257 253 250 247 244 240 238 236 233 230 229 226 221 217 215 217 217 218 220 219 219 220 219 221 223 219 215 216 223 233 242 252 268 279 269
247 247 247 247 247 248 248 248 248 248 248 249 250 251 252 253 254 255 256 257 259 260 261 262 263 264 265 266 267 268 269 269 270 271 272 273 274 274 274 275 274 273 272 270 269 269 268 268 267 266 265 262 259 256 252 248 246 244 241 237 236 235 232 229 226 223 217 215 217 218 218 218 218 217 218 217 216 217 215 214 213 219 234 242 245 252 271 278
246 247 247 247 248 248 248 248 248 249 249 249 250 250 251 252 253 254 255 257 258 259 260 261 262 263 264 265 266 267 268 268 269 269 270 271 271 272 272 271 271 269 267 267 266 266 266 265 265 264 262 260 258 255 252 247 242 241 239 236 235 234 233 230 227 223 219 217 217 218 218 216 216 215 214 215 213 212 212 212 211 215 229 234 228 230 257 281
245 246 247 247 248 248 248 248 249 249 249 250 250 251 251 252 253 254 255 256 257 258 260 261 262 262 263 264 265 266 266 267 267 268 268 269 269 269 269 268 267 265 264 265 265 264 263 262 263 262 261 259 257 254 251 248 242 240 238 235 233 233 233 231 227 224 221 219 218 218 217 215 215 212 209 209 210 209 208 208 206 210 221 223 220 219 240 267
245 245 246 247 247 248 248 248 249 249 250 250 250 251 251 252 253 254 255 256 257 258 259 260 261 262 262 263 263 264 264 265 266 266 266 266 267 267 266 265 263 263 263 263 262 261 261 261 261 261 260 258 256 253 251 248 244 241 238 234 232 231 232 231 228 225 222 220 219 217 216 215 213 211 206 204 206 208 210 208 202 213 218 213 213 214 222 241
245 245 245 246 247 247 248 248 249 249 250 250 251 251 252 252 253 254 255 256 257 257 258 259 260 260 261 262 262 262 263 263 264 264 264 264 264 264 263 262 261 261 261 261 261 261 260 260 260 259 258 257 255 253 250 248 245 241 238 235 231 229 230 229 226 225 223 221 220 216 216 217 213 208 203 200 202 207 212 207 198 209 220 215 206 209 220 223
245 245 245 245 246 247 247 248 249 249 250 250 251 252 252 253 253 254 255 256 257 258 258 259 259 259 260 260 261 261 261 262 262 263 263 262 262 261 261 260 260 260 260 260 260 260 259 258 258 257 256 256 255 253 251 248 245 241 237 235 232 228 228 228 225 223 223 222 220 217 216 217 213 206 201 197 199 205 209 205 198 201 216 219 203 203 214 214
244 244 244 245 245 246 247 248 248 249 249 250 251 252 252 253 254 254 255 256 257 258 258 258 258 259 259 260 260 261 261 261 261 261 261 261 260 260 260 259 259 259 260 260 259 258 257 256 255 255 255 255 255 254 252 249 246 242 237 235 233 229 227 227 224 221 221 221 220 218 216 216 212 205 200 198 199 205 206 202 199 199 206 211 204 203 211 215
243 243 244 244 244 245 246 247 248 248 249 250 251 252 252 253 254 254 255 256 257 257 258 258 258 258 258 259 259 260 260 260 260 260 260 260 259 259 258 258 258 259 259 258 257 257 256 255 254 254 255 254 254 254 253 250 247 242 238 235 234 230 226 226 225 221 219 220 220 219 216 213 210 204 200 199 201 205 204 198 199 204 203 203 202 205 210 216
243 243 243 243 244 244 245 246 247 248 249 250 251 251 252 253 254 254 255 255 256 256 257 257 257 258 258 258 259 259 259 259 260 260 259 258 258 258 258 258 258 258 258 257 257 257 256 255 254 253 253 253 254 253 252 251 247 243 238 236 234 231 229 226 224 221 218 217 219 219 216 213 208 204 202 203 204 206 204 196 199 208 204 199 200 203 208 213
242 242 243 243 243 244 245 246 247 248 248 249 250 251 252 252 253 254 254 254 255 255 255 256 257 257 258 258 258 258 258 259 259 258 257 257 256 257 257 257 256 256 256 256 255 255 254 253 252 251 251 252 253 252 250 249 246 243 238 236 235 232 230 227 223 221 218 215 217 218 216 214 209 203 204 207 207 209 206 199 202 207 206 203 198 198 204 209
242 242 242 243 243 244 245 246 247 247 248 249 249 250 251 252 252 253 253 253 253 254 254 255 256 256 257 258 258 258 258 258 257 257 256 256 255 255 255 254 254 254 253 253 253 252 252 250 249 248 249 250 251 250 250 248 246 243 237 234 233 232 231 228 224 220 217 214 214 216 215 214 212 205 207 211 211 213 208 201 202 202 204 203 195 191 200 211
241 242 242 242 243 243 244 245 246 246 247 248 248 250 250 251 252 252 252 252 253 253 254 254 255 256 257 257 257 257 257 256 256 256 256 255 255 254 253 252 252 252 252 252 251 250 249 248 248 248 250 250 250 250 250 248 245 242 237 234 232 231 230 228 226 221 217 214 213 215 214 214 214 209 210 213 213 214 210 202 199 199 201 201 197 195 202 217
241 241 241 241 241 242 243 244 244 245 246 247 248 249 249 250 250 251 252 252 252 253 253 254 255 255 255 255 256 256 256 256 256 256 255 254 254 254 253 253 253 253 252 251 250 248 247 248 250 250 250 249 248 248 246 245 243 240 237 234 232 230 229 228 226 222 217 214 212 213 213 213 214 213 213 214 214 214 208 198 193 196 200 202 201 197 204 219
239 239 239 239 239 240 241 242 243 244 245 246 247 248 249 249 250 250 251 252 252 253 253 254 254 254 255 255 255 255 255 255 254 254 253 253 253 253 253 253 253 252 250 249 247 247 248 250 250 249 247 247 246 245 244 243 241 239 236 233 231 229 228 227 226 222 217 214 211 211 212 213 214 213 213 213 213 212 205 195 190 191 197 201 201 195 201 214
236 237 236 237 237 238 240 241 242 243 244 245 246 247 248 249 249 250 251 251 252 252 252 253 254 254 254 254 254 254 253 252 252 251 252 252 252 251 251 251 250 249 248 247 247 248 249 249 247 246 246 246 245 244 242 240 238 236 234 232 230 228 227 226 225 223 217 213 211 209 210 212 213 213 212 210 209 208 205 194 184 183 189 201 205 199 199 208
232 233 233 234 236 237 238 240 241 242 243 244 246 247 248 249 249 250 250 251 251 251 252 252 253 253 252 252 252 251 251 250 250 250 250 250 250 250 250 249 248 247 247 247 247 247 246 244 243 244 244 243 242 240 237 236 234 233 231 230 229 227 226 225 225 223 218 214 210 208 208 210 211 211 209 206 203 205 202 186 174 175 183 197 201 197 198 205
227 228 230 232 234 236 237 239 241 242 243 245 246 247 248 248 249 250 250 250 251 252 252 252 251 251 251 251 250 250 250 250 249 249 249 249 249 248 248 247 246 246 246 246 245 244 243 242 242 242 241 239 237 235 234 232 230 230 228 227 226 226 225 224 224 223 219 213 210 208 206 206 209 210 207 202 199 201 196 177 167 172 183 197 200 196 199 204
223 226 228 231 233 235 237 239 241 242 244 245 246 247 248 249 249 250 250 251 252 252 252 252 251 251 251 251 251 250 249 249 248 248 247 247 247 247 246 245 245 245 244 244 242 241 241 241 240 238 237 235 233 232 231 230 228 227 226 225 224 224 224 223 222 222 220 214 210 207 204 203 204 206 205 200 197 198 190 170 163 179 192 199 205 205 207 209
222 225 228 231 234 236 238 240 242 243 245 246 247 249 250 250 251 252 252 252 252 252 252 252 252 252 252 251 250 249 249 248 248 247 247 247 246 246 245 244 244 244 243 241 239 239 239 238 236 233 231 228 228 228 228 228 226 226 225 223 222 222 222 221 220 219 218 215 211 207 204 201 201 203 204 200 196 197 191 174 168 192 208 207 212 213 210 210
223 226 230 232 235 237 239 241 243 244 246 247 249 250 251 252 252 253 253 253 252 252 252 252 252 251 251 250 249 249 248 248 247 246 246 245 244 243 243 242 242 242 241 239 237 236 235 231 227 225 223 222 222 223 223 224 224 225 224 222 221 220 220 219 218 216 215 213 212 208 204 202 201 200 201 200 197 196 193 182 171 181 201 210 218 213 205 204
220 224 227 230 232 234 237 240 243 245 247 248 250 251 252 253 254 254 254 253 253 252 251 251 250 250 249 249 249 248 246 245 244 243 243 242 242 242 241 240 239 238 237 234 231 230 226 221 217 216 216 215 217 219 220 222 224 225 225 224 221 219 218 217 216 214 212 211 211 209 204 201 200 200 201 200 199 197 193 189 179 177 193 204 212 210 200 202
212 217 220 225 229 233 237 241 245 247 250 251 253 255 256 256 256 256 256 255 254 253 252 251 250 248 248 247 246 246 244 243 242 241 240 240 240 239 239 237 236 235 233 229 224 222 219 215 213 212 211 212 214 218 220 223 225 227 229 228 224 220 216 215 214 212 210 209 210 208 204 201 199 199 201 199 200 198 194 192 185 182 195 202 204 207 203 207
205 209 214 219 222 226 231 235 241 246 250 253 256 257 258 258 258 257 257 256 255 254 253 251 249 248 247 245 244 243 242 241 239 239 238 237 236 236 234 233 232 232 230 225 220 218 215 213 213 212 210 211 216 220 223 225 228 231 233 233 229 223 217 213 213 211 209 208 209 208 205 202 198 197 200 199 198 199 197 195 189 186 195 202 203 207 208 214
174 176 177 177 177 181 189 202 220 235 247 254 257 259 260 261 260 260 260 259 258 256 253 251 249 247 245 244 242 240 239 238 237 236 235 234 233 232 231 230 229 230 228 223 219 216 213 213 213 212 210 214 220 223 225 228 231 233 235 235 233 228 220 214 212 210 208 206 208 207 205 203 200 199 199 197 197 197 196 198 196 192 195 201 204 206 209 215
138 137 135 135 135 134 135 138 151 187 246 267 271 273 272 271 271 269 268 266 264 260 257 253 250 247 244 242 240 239 237 236 235 233 232 230 230 229 227 226 225 226 224 220 216 214 213 213 213 211 211 218 223 226 228 231 234 236 238 238 236 231 223 217 212 210 208 206 207 207 205 203 202 200 199 198 197 194 193 196 199 199 199 204 208 208 211 218
124 123 123 123 121 117 115 114 111 96 46 352 326 311 300 295 291 287 282 277 272 266 261 257 252 248 245 242 240 238 236 234 233 232 231 229 228 227 225 224 223 222 220 216 213 212 212 212 212 212 214 220 224 226 229 232 234 237 239 240 239 234 226 219 214 211 208 207 207 206 205 203 203 202 200 200 197 194 195 196 197 201 204 209 215 214 213 221
119 119 119 116 112 107 104 97 83 64 43 25 10 356 345 336 325 314 303 292 281 273 265 258 253 249 245 242 239 237 235 234 232 230 229 228 227 226 225 224 223 222 218 214 213 214 213 213 213 214 218 222 225 228 231 233 236 238 239 240 240 236 228 220 214 211 208 206 207 206 205 203 204 204 201 200 198 197 201 200 192 196 203 207 211 209 209 218
116 114 112 107 102 98 92 81 66 51 40 30 21 14 10 5 355 342 326 311 297 283 271 261 253 248 244 241 238 236 234 233 230 229 227 226 225 224 224 223 223 221 217 214 215 216 215 215 216 218 222 225 229 232 235 237 239 241 243 242 240 235 228 220 214 210 207 206 206 206 205 204 205 206 203 202 201 200 203 202 194 192 194 196 199 203 208 213
112 110 106 101 97 91 84 73 62 51 41 33 25 20 20 16 9 359 347 335 321 302 285 270 257 249 244 240 236 234 234 232 230 228 227 226 225 224 224 224 223 221 218 216 217 218 217 218 218 221 223 227 231 234 236 239 241 244 246 244 240 234 227 220 214 210 207 206 206 206 205 204 205 206 205 203 202 202 199 198 200 196 192 193 199 206 210 210
112 108 105 100 95 88 79 72 62 53 45 37 28 24 23 21 16 10 4 358 350 334 312 288 267 253 245 240 236 233 231 232 231 229 227 226 225 225 224 224 223 222 220 219 220 220 219 220 221 222 225 228 232 235 237 240 242 244 244 242 237 232 225 219 213 210 208 206 205 205 205 205 205 206 206 204 203 200 192 191 199 198 192 196 202 208 212 215
111 108 105 99 93 86 78 70 62 54 47 40 32 26 25 24 19 16 15 14 10 3 350 327 294 264 247 240 238 234 230 229 230 229 228 227 226 225 224 223 222 221 220 220 221 221 221 222 224 225 227 230 233 236 239 242 244 243 242 238 232 227 222 217 213 210 208 206 205 205 205 206 205 205 206 205 203 200 190 187 193 195 193 198 204 209 215 222
111 106 102 97 91 83 74 67 60 53 47 41 31 27 28 27 21 18 20 21 20 17 11 2 342 298 258 239 235 234 231 229 228 228 227 226 226 225 224 223 222 221 220 221 222 222 221 223 225 226 228 231 234 238 241 244 245 242 237 232 226 222 219 215 213 211 209 206 205 205 206 206 205 205 206 206 204 201 192 185 188 192 195 201 208 213 219 225
108 103 98 93 86 78 70 63 56 49 46 41 31 27 28 27 22 20 21 23 25 23 20 17 11 354 304 251 233 231 231 229 228 227 226 226 225 225 224 223 222 220 220 221 222 221 221 223 226 227 230 232 235 239 242 244 244 240 232 226 221 217 215 213 212 211 209 207 206 206 207 207 206 205 205 206 205 203 195 188 187 188 191 199 209 216 222 227
106 99 92 86 78 71 64 57 51 44 41 40 33 27 26 26 23 21 21 22 25 26 24 22 20 17 4 306 244 230 229 229 228 227 226 226 226 225 224 223 222 221 221 221 221 220 220 222 224 226 229 232 234 238 242 244 244 237 228 223 219 215 213 212 212 211 209 207 206 207 208 207 206 205 205 205 206 204 198 192 191 190 188 193 204 213 221 225
103 94 86 77 69 62 53 48 43 38 35 36 34 29 25 24 23 21 20 21 24 26 26 25 24 22 19 8 302 236 230 230 230 230 228 228 227 227 227 226 224 223 222 222 222 221 220 221 223 225 226 230 234 238 242 243 240 231 224 220 217 214 212 212 212 212 210 208 206 207 209 209 206 204 204 204 205 205 202 197 197 197 190 190 199 210 216 219
102 91 78 66 57 50 41 36 32 29 27 27 30 29 25 24 22 20 20 19 21 24 26 26 26 24 21 19 10 287 231 228 230 232 232 231 230 229 228 228 227 227 226 225 225 224 223 224 225 227 228 230 233 236 239 238 232 226 221 218 216 214 213 212 213 213 211 210 208 207 210 210 207 205 204 204 204 205 203 200 201 203 197 191 195 205 211 214
101 86 70 54 42 34 28 23 19 18 18 19 22 25 24 23 22 20 19 19 19 21 23 25 26 25 23 21 18 8 279 231 226 228 231 234 234 232 230 229 229 228 228 228 228 228 227 227 227 228 230 232 235 237 237 232 225 220 219 217 216 214 214 213 214 214 213 211 209 209 210 211 209 206 204 204 204 204 204 202 203 206 205 199 195 198 204 208
100 77 56 38 25 19 14 11 9 8 9 10 13 17 19 20 21 21 19 18 18 19 20 23 24 24 24 23 21 17 3 288 236 227 227 230 233 234 233 230 229 228 228 227 228 228 228 228 228 229 230 232 235 237 235 227 219 215 215 215 215 214 214 214 215 215 214 212 211 210 210 211 210 208 205 204 204 204 204 203 203 205 208 207 204 199 198 200
108 39 25 16 7 4 2 360 358 358 359 2 4 7 10 13 17 18 17 18 18 17 18 20 22 22 22 22 21 20 15 358 292 242 229 226 227 229 231 230 228 228 228 227 227 226 227 228 228 229 230 231 233 234 230 223 215 212 211 212 213 213 213 215 216 216 214 213 212 210 209 211 211 210 207 205 204 204 204 204 204 204 206 210 211 208 203 202
278 308 333 342 345 348 349 349 349 349 350 353 356 359 1 3 7 12 13 14 16 16 15 16 19 20 20 18 18 19 18 12 353 295 248 232 225 223 226 227 228 227 227 227 227 226 227 227 228 228 229 230 232 231 228 222 214 210 211 212 212 213 213 215 217 217 216 214 213 211 209 210 212 211 209 206 204 204 204 204 205 205 204 207 213 215 214 213
275 292 305 316 325 331 336 337 338 340 341 343 347 351 353 355 358 3 6 8 10 12 12 12 13 16 17 16 15 15 15 13 8 351 303 254 235 227 222 222 224 226 226 226 226 225 225 226 226 227 227 228 228 228 227 223 216 212 212 213 213 213 213 214 216 217 217 217 215 212 209 210 211 212 211 209 206 205 205 204 204 206 205 204 208 215 219 220
271 283 293 302 310 316 322 326 327 330 332 333 336 341 345 347 349 353 357 1 4 5 7 8 8 9 12 13 13 11 10 9 9 3 351 314 260 239 230 224 221 222 223 225 225 224 224 224 225 225 225 225 225 225 225 223 219 216 215 215 215 215 214 215 216 217 217 218 217 213 210 210 211 211 211 211 208 206 206 205 205 206 207 205 204 209 217 221
270 277 285 292 299 304 309 313 317 319 321 323 326 330 334 338 341 344 348 352 356 358 0 2 3 3 4 7 9 9 6 4 4 2 358 349 320 268 244 234 226 221 220 221 223 223 224 224 224 224 225 225 224 224 222 221 220 218 218 218 218 217 216 217 217 217 216 218 218 215 212 211 211 210 210 211 210 208 207 207 206 206 208 208 206 207 213 219
271 276 280 285 291 296 300 303 307 309 312 314 317 319 323 328 331 335 339 343 347 351 354 356 357 358 358 358 1 3 3 360 358 357 355 351 343 321 275 249 238 230 224 220 219 220 222 224 225 224 224 225 225 224 223 221 220 219 220 221 222 221 220 220 220 219 217 217 217 216 216 213 211 211 211 212 212 211 209 208 208 208 208 210 209 209 210 215
Height
10947 10949 10951 10953 10954 10956 10958 10959 10961 10963 10965 10967 10969 10970 10972 10973 10974 10976 10977 10978 10979 10981 10982 10983 10984 10984 10985 10985 10985 10986 10987 10988 10988 10989 10990 10990 10990 10991 10992 10993 10993 10993 10993 10992 10992 10992 10992 10993 10993 10993 10994 10994 10995 10995 10995 10995 10996 10997 10998 10999 11000 11002 11003 11004 11004 11005 11006 11006 11008 11009 11010 11011 11012 11013 11014 11015 11016 11017 11017 11018 11019 11019 11019 11019 11020 11020 11019 11018
10941 10944 10946 10948 10949 10951 10953 10955 10957 10959 10960 10962 10964 10966 10967 10969 10970 10972 10973 10974 10975 10977 10978 10979 10980 10981 10981 10981 10982 10983 10984 10985 10985 10986 10986 10987 10987 10988 10989 10990 10990 10991 10990 10989 10989 10989 10989 10990 10990 10990 10991 10991 10992 10993 10993 10993 10994 10994 10995 10997 10998 11000 11001 11002 11003 11003 11004 11005 11006 11007 11008 11009 11010 11012 11013 11014 11015 11016 11017 11018 11018 11018 11018 11019 11019 11019 11019 11018
10936 10938 10940 10942 10944 10946 10948 10950 10952 10954 10956 10958 10960 10961 10963 10965 10966 10967 10969 10970 10971 10973 10974 10975 10976 10977 10977 10978 10978 10979 10981 10981 10982 10983 10983 10984 10984 10985 10986 10987 10987 10988 10987 10987 10986 10986 10986 10987 10987 10988 10988 10989 10990 10990 10991 10991 10992 10992 10993 10994 10996 10997 10999 11001 11001 11002 11002 11003 11004 11005 11006 11007 11009 11011 11012 11013 11014 11015 11016 11017 11017 11018 11018 11018 11019 11018 11019 11018
10930 10932 10934 10936 10939 10941 10943 10945 10947 10949 10951 10953 10955 10957 10958 10960 10961 10963 10964 10965 10967 10969 10970 10971 10972 10973 10974 10974 10975 10976 10977 10978 10979 10979 10980 10981 10981 10981 10982 10983 10984 10984 10984 10984 10983 10983 10983 10984 10984 10985 10985 10986 10987 10988 10988 10989 10989 10990 10991 10992 10993 10995 10997 10998 10999 11000 11001 11002 11003 11004 11005 11006 11007 11009 11011 11013 11014 11015 11016 11016 11017 11017 11017 11018 11018 11017 11018 11018
10924 10926 10928 10931 10933 10935 10937 10940 10942 10944 10946 10948 10950 10952 10954 10955 10957 10958 10960 10961 10963 10964 10966 10967 10968 10969 10970 10970 10971 10972 10973 10974 10975 10976 10976 10977 10978 10978 10979 10980 10981 10981 10981 10981 10981 10980 10980 10980 10981 10981 10982 10983 10984 10985 10986 10986 10987 10988 10988 10989 10991 10992 10994 10996 10997 10998 10999 11000 11002 11003 11003 11004 11006 11008 11010 11012 11014 11015 11014 11015 11016 11017 11017 11017 11017 11017 11017 11018
10918 10920 10923 10925 10927 10930 10932 10934 10937 10939 10941 10943 10945 10947 10949 10950 10952 10953 10955 10956 10958 10960 10961 10962 10963 10964 10965 10966 10967 10968 10969 10971 10972 10972 10973 10974 10974 10975 10975 10976 10977 10978 10978 10978 10977 10977 10977 10977 10977 10978 10979 10980 10981 10982 10983 10984 10985 10985 10986 10987 10989 10990 10991 10993 10995 10996 10998 10999 11000 11002 11002 11003 11005 11007 11009 11011 11013 11013 11013 11014 11016 11016 11017 11017 11016 11016 11017 11017
10912 10915 10917 10919 10922 10924 10926 10929 10931 10934 10936 10938 10940 10942 10944 10945 10947 10949 10950 10952 10953 10955 10956 10958 10959 10960 10961 10962 10962 10964 10965 10967 10968 10968 10969 10970 10971 10971 10972 10972 10974 10974 10974 10974 10974 10973 10973 10974 10974 10975 10976 10977 10979 10980 10980 10981 10982 10983 10984 10985 10986 10988 10989 10990 10992 10994 10996 10998 10999 11001 11002 11002 11004 11005 11007 11010 11012 11012 11012 11014 11015 11015 11016 11016 11016 11016 11016 11016
10906 10909 10911 10914 10916 10918 10921 10923 10926 10928 10931 10933 10934 10936 10939 10941 10942 10944 10945 10947 10948 10950 10952 10953 10954 10955 10956 10957 10958 10959 10961 10962 10963 10964 10965 10966 10967 10967 10968 10969 10970 10970 10970 10970 10970 10970 10970 10970 10971 10972 10973 10975 10976 10977 10978 10979 10980 10981 10982 10983 10984 10985 10986 10988 10989 10992 10994 10996 10998 10999 11001 11002 11003 11005 11006 11008 11010 11011 11012 11014 11014 11015 11015 11015 11015 11015 11016 11016
10901 10903 10905 10908 10910 10913 10915 10917 10920 10923 10925 10927 10929 10931 10933 10935 10937 10938 10940 10942 10944 10945 10947 10948 10949 10950 10951 10952 10953 10954 10956 10957 10958 10959 10961 10962 10963 10963 10964 10965 10966 10966 10966 10966 10966 10967 10967 10967 10968 10969 10970 10971 10972 10974 10975 10976 10977 10978 10979 10980 10982 10983 10984 10985 10987 10989 10992 10994 10996 10998 11000 11001 11002 11004 11005 11007 11008 11009 11011 11013 11014 11014 11014 11015 11015 11014 11014 11015
10895 10897 10900 10902 10905 10907 10909 10912 10914 10917 10920 10922 10924 10926 10928 10930 10932 10933 10935 10937 10939 10940 10941 10943 10944 10945 10946 10947 10948 10949 10951 10952 10953 10955 10956 10958 10959 10959 10960 10961 10962 10962 10961 10961 10962 10963 10964 10964 10965 10966 10967 10968 10969 10970 10972 10973 10974 10975 10976 10978 10979 10981 10982 10983 10985 10986 10989 10991 10994 10996 10998 11000 11001 11003 11005 11006 11007 11008 11010 11011 11013 11014 11013 11013 11014 11013 11013 11014
10889 10892 10894 10897 10899 10901 10903 10906 10909 10912 10914 10916 10918 10920 10922 10924 10926 10928 10930 10932 10934 10935 10936 10937 10939 10940 10941 10942 10943 10944 10945 10947 10948 10950 10952 10953 10954 10954 10955 10957 10957 10957 10957 10958 10959 10960 10960 10961 10962 10963 10964 10965 10966 10967 10969 10970 10971 10972 10974 10975 10977 10978 10980 10981 10982 10984 10986 10989 10991 10994 10996 10999 11000 11002 11004 11005 11005 11007 11009 11010 11012 11013 11013 11012 11012 11012 11013 11014
10883 10886 10889 10891 10893 10895 10898 10901 10904 10906 10909 10911 10913 10915 10917 10919 10921 10923 10925 10927 10929 10930 10931 10932 10933 10934 10935 10937 10938 10939 10940 10941 10943 10945 10947 10949 10949 10950 10951 10952 10952 10952 10953 10954 10955 10956 10957 10958 10959 10960 10960 10962 10963 10964 10966 10967 10968 10969 10971 10973 10974 10976 10977 10978 10980 10982 10984 10986 10989 10992 10994 10997 10999 11000 11002 11003 11004 11006 11008 11010 11012 11013 11012 11012 11011 11012 11013 11014
10877 10880 10883 10885 10887 10890 10893 10896 10898 10901 10903 10906 10908 10910 10913 10914 10916 10918 10920 10922 10923 10925 10926 10927 10928 10929 10930 10931 10932 10934 10935 10936 10938 10941 10942 10944 10945 10945 10946 10947 10948 10947 10948 10950 10952 10953 10954 10955 10956 10957 10957 10959 10960 10961 10963 10964 10965 10967 10968 10970 10972 10974 10975 10976 10978 10979 10981 10984 10986 10990 10993 10995 10996 10998 11000 11002 11004 11006 11007 11009 11012 11013 11011 11011 11012 11012 11014 11015
10872 10874 10877 10879 10882 10885 10887 10890 10893 10895 10898 10900 10903 10905 10907 10909 10911 10913 10915 10916 10918 10919 10920 10921 10922 10923 10924 10925 10927 10929 10930 10931 10934 10936 10938 10939 10940 10940 10940 10942 10943 10943 10944 10947 10948 10950 10951 10952 10953 10953 10954 10956 10957 10958 10960 10961 10963 10964 10966 10967 10968 10971 10972 10973 10975 10977 10979 10981 10984 10988 10991 10993 10994 10996 10999 11001 11003 11004 11006 11009 11011 11012 11010 11010 11012 11014 11015 11016
10866 10869 10871 10874 10877 10879 10882 10885 10888 10890 10893 10895 10897 10900 10902 10904 10906 10908 10910 10911 10913 10914 10915 10916 10917 10918 10919 10920 10922 10924 10925 10927 10929 10930 10932 10934 10934 10935 10935 10937 10938 10938 10941 10943 10945 10946 10948 10949 10950 10950 10952 10953 10954 10955 10957 10958 10960 10962 10963 10963 10965 10967 10970 10972 10973 10975 10977 10979 10982 10985 10988 10990 10993 10995 10997 11000 11002 11003 11005 11008 11010 11011 11011 11011 11012 11014 11016 11016
10861 10863 10866 10868 10871 10874 10877 10879 10882 10885 10887 10890 10892 10894 10896 10899 10901 10903 10905 10906 10907 10908 10909 10910 10911 10912 10913 10915 10917 10919 10920 10922 10923 10925 10927 10928 10929 10929 10930 10932 10933 10934 10937 10939 10941 10942 10944 10946 10947 10948 10949 10950 10951 10952 10953 10955 10957 10959 10960 10961 10962 10964 10967 10969 10971 10973 10975 10977 10979 10982 10985 10988 10991 10993 10996 10998 11000 11002 11004 11006 11008 11010 11011 11011 11011 11013 11015 11015
10856 10858 10861 10863 10866 10869 10871 10874 10877 10880 10882 10885 10887 10889 10891 10893 10895 10897 10899 10900 10901 10902 10903 10904 10905 10907 10908 10910 10912 10913 10915 10917 10918 10920 10922 10923 10923 10924 10925 10928 10929 10930 10932 10935 10937 10939 10941 10942 10943 10945 10946 10947 10948 10949 10950 10952 10954 10956 10957 10958 10959 10961 10964 10966 10969 10971 10973 10974 10977 10980 10983 10986 10989 10991 10994 10996 10999 11000 11002 11005 11006 11008 11009 11009 11010 11011 11012 11013
10851 10854 10856 10858 10861 10864 10867 10869 10872 10875 10877 10880 10882 10884 10886 10888 10890 10892 10893 10895 10896 10897 10898 10899 10900 10902 10903 10906 10907 10908 10910 10912 10914 10915 10916 10917 10918 10919 10921 10923 10924 10926 10928 10930 10933 10935 10937 10938 10939 10941 10942 10944 10945 10945 10947 10949 10951 10953 10955 10956 10957 10959 10961 10963 10966 10969 10970 10972 10975 10977 10980 10984 10987 10990 10992 10995 10997 10999 11001 11003 11005 11007 11008 11008 11009 11010 11010 11011
10847 10849 10851 10854 10857 10860 10862 10865 10867 10870 10872 10874 10876 10878 10880 10882 10884 10886 10887 10889 10890 10891 10893 10894 10895 10896 10898 10901 10902 10903 10905 10907 10908 10909 10911 10912 10913 10914 10916 10918 10919 10921 10923 10926 10928 10931 10932 10933 10935 10937 10939 10940 10940 10941 10944 10946 10947 10949 10952 10954 10955 10956 10958 10960 10963 10965 10967 10970 10972 10975 10978 10981 10984 10988 10990 10993 10996 10998 11000 11002 11004 11006 11007 11007 11007 11009 11009 11009
10843 10845 10848 10850 10853 10855 10858 10860 10863 10865 10867 10869 10871 10873 10875 10877 10879 10880 10882 10883 10885 10886 10887 10889 10890 10892 10894 10895 10896 10898 10900 10901 10903 10905 10906 10906 10908 10909 10911 10913 10914 10917 10919 10922 10924 10926 10927 10928 10931 10934 10935 10936 10937 10939 10941 10942 10944 10946 10949 10951 10952 10953 10955 10957 10959 10962 10965 10967 10969 10972 10976 10979 10982 10986 10989 10991 10994 10997 10999 11001 11003 11005 11006 11006 11007 11008 11008 11009
10840 10842 10844 10846 10849 10851 10854 10856 10858 10860 10862 10864 10866 10868 10870 10872 10873 10875 10876 10878 10879 10881 10882 10884 10885 10887 10888 10890 10891 10893 10895 10896 10898 10900 10901 10901 10903 10904 10906 10908 10910 10913 10916 10918 10919 10920 10922 10925 10929 10931 10931 10932 10933 10935 10937 10938 10940 10943 10945 10947 10948 10950 10952 10954 10956 10959 10962 10964 10967 10970 10973 10977 10980 10984 10987 10990 10993 10996 10998 11000 11001 11003 11005 11005 11006 11007 11008 11008
10836 10838 10840 10843 10845 10848 10850 10852 10854 10856 10858 10860 10862 10864 10865 10867 10868 10870 10872 10873 10874 10876 10877 10879 10880 10882 10883 10885 10886 10888 10890 10892 10893 10894 10895 10896 10898 10900 10902 10905 10907 10909 10912 10912 10913 10916 10919 10923 10925 10925 10926 10928 10929 10931 10933 10935 10937 10939 10941 10943 10945 10947 10949 10951 10953 10956 10959 10961 10964 10967 10971 10975 10978 10982 10985 10988 10991 10994 10996 10998 10999 11001 11003 11004 11004 11004 11006 11007
10833 10835 10838 10840 10842 10845 10847 10849 10851 10853 10855 10856 10858 10859 10861 10862 10864 10865 10867 10868 10870 10871 10873 10874 10875 10877 10879 10880 10882 10883 10885 10886 10888 10889 10890 10892 10894 10895 10898 10901 10903 10905 10906 10907 10910 10913 10917 10919 10919 10919 10922 10924 10925 10927 10929 10931 10933 10935 10937 10939 10941 10943 10945 10948 10950 10952 10956 10959 10962 10965 10969 10972 10976 10979 10983 10986 10990 10993 10995 10996 10998 11000 11002 11002 11002 11003 11004 11006
10831 10833 10835 10837 10839 10842 10844 10845 10847 10849 10851 10853 10854 10855 10857 10858 10860 10861 10863 10864 10866 10867 10868 10870 10871 10872 10874 10875 10876 10878 10879 10881 10883 10885 10886 10887 10889 10891 10894 10897 10898 10900 10901 10904 10907 10911 10912 10912 10913 10916 10918 10920 10921 10923 10924 10926 10928 10930 10933 10935 10938 10940 10943 10945 10947 10950 10953 10957 10960 10963 10967 10970 10974 10977 10981 10984 10988 10991 10993 10995 10997 10999 11001 11001 11001 11002 11004 11005
10829 10831 10833 10835 10837 10839 10841 10843 10844 10846 10848 10849 10850 10852 10853 10854 10856 10857 10859 10860 10862 10863 10864 10865 10866 10867 10868 10870 10872 10873 10875 10877 10878 10880 10882 10883 10885 10887 10890 10892 10894 10895 10897 10901 10904 10906 10906 10907 10910 10912 10914 10915 10916 10918 10919 10922 10924 10926 10929 10932 10934 10937 10940 10942 10945 10948 10951 10955 10958 10961 10965 10968 10972 10976 10979 10982 10985 10988 10991 10993 10995 10998 10999 11000 10999 11000 11002 11003
10827 10829 10831 10833 10835 10837 10838 10840 10842 10843 10845 10846 10847 10848 10849 10850 10852 10853 10855 10856 10857 10858 10859 10860 10861 10862 10864 10865 10867 10869 10871 10872 10874 10876 10877 10878 10881 10883 10885 10887 10889 10891 10894 10897 10899 10900 10901 10903 10906 10908 10909 10911 10912 10913 10916 10918 10921 10923 10925 10928 10931 10934 10937 10940 10943 10945 10949 10952 10955 10958 10962 10966 10970 10973 10976 10979 10982 10985 10988 10990 10992 10996 10998 10998 10999 11000 11001 11002
10826 10827 10829 10831 10833 10835 10836 10838 10839 10841 10842 10843 10844 10845 10846 10847 10848 10849 10850 10852 10853 10853 10854 10855 10857 10858 10859 10860 10862 10864 10866 10867 10869 10871 10872 10874 10876 10878 10880 10883 10885 10887 10889 10892 10894 10895 10897 10900 10903 10904 10905 10906 10908 10910 10913 10915 10917 10919 10922 10925 10928 10931 10934 10937 10940 10943 10946 10949 10953 10955 10959 10963 10967 10970 10973 10976 10979 10982 10986 10987 10988 10992 10996 10997 10998 10999 10999 10999
10824 10826 10827 10829 10831 10832 10834 10835 10836 10838 10839 10839 10840 10841 10842 10843 10844 10845 10846 10847 10848 10848 10849 10851 10852 10853 10854 10855 10857 10859 10861 10863 10864 10866 10868 10869 10871 10873 10875 10878 10880 10882 10884 10887 10889 10891 10894 10897 10899 10900 10901 10903 10905 10907 10910 10912 10914 10916 10919 10922 10925 10928 10931 10934 10937 10940 10943 10946 10949 10952 10956 10960 10963 10966 10970 10973 10976 10979 10983 10984 10985 10989 10993 10996 10997 10997 10997 10997
10823 10824 10826 10827 10829 10830 10832 10833 10834 10835 10836 10836 10837 10838 10838 10839 10840 10841 10842 10843 10843 10844 10845 10846 10847 10848 10849 10851 10852 10854 10856 10858 10859 10861 10862 10864 10866 10868 10871 10873 10875 10877 10879 10882 10885 10887 10890 10892 10893 10895 10898 10900 10902 10904 10906 10909 10912 10914 10917 10920 10923 10925 10928 10931 10934 10936 10940 10943 10946 10949 10953 10957 10960 10964 10968 10971 10973 10976 10979 10982 10983 10986 10990 10992 10994 10994 10995 10996
10821 10823 10824 10826 10827 10829 10830 10831 10832 10832 10833 10834 10834 10835 10835 10836 10836 10837 10838 10838 10839 10840 10841 10842 10843 10844 10845 10846 10848 10850 10851 10853 10855 10856 10858 10860 10862 10865 10867 10869 10871 10872 10874 10878 10881 10883 10885 10887 10889 10892 10894 10897 10899 10901 10904 10907 10910 10913 10915 10917 10920 10922 10924 10927 10930 10933 10936 10939 10942 10946 10949 10953 10957 10962 10965 10967 10970 10973 10976 10979 10981 10983 10986 10989 10990 10992 10993 10994
10821 10822 10823 10825 10826 10827 10828 10829 10830 10830 10831 10831 10832 10832 10832 10833 10833 10833 10833 10833 10834 10835 10836 10837 10838 10839 10840 10842 10843 10845 10847 10849 10850 10852 10854 10857 10859 10861 10863 10865 10866 10868 10871 10874 10877 10878 10881 10884 10886 10889 10893 10895 10897 10900 10903 10905 10908 10911 10913 10914 10916 10918 10921 10924 10927 10929 10933 10936 10939 10942 10946 10950 10954 10958 10961 10964 10967 10970 10973 10976 10978 10981 10983 10985 10987 10989 10991 10993
10820 10821 10823 10824 10825 10826 10827 10828 10829 10829 10829 10830 10830 10830 10830 10830 10830 10830 10830 10830 10830 10830 10831 10832 10833 10834 10835 10837 10839 10841 10842 10844 10846 10849 10851 10853 10855 10857 10859 10861 10863 10865 10868 10871 10874 10876 10879 10881 10884 10888 10892 10894 10896 10898 10901 10904 10906 10908 10909 10910 10912 10915 10918 10921 10923 10926 10929 10932 10935 10939 10943 10947 10951 10954 10957 10961 10964 10967 10970 10973 10975 10978 10980 10982 10984 10986 10989 10991
10820 10821 10823 10824 10825 10826 10827 10827 10828 10828 10828 10828 10828 10828 10828 10827 10827 10827 10827 10827 10826 10826 10826 10827 10828 10828 10830 10832 10833 10836 10838 10840 10842 10844 10847 10849 10851 10853 10855 10857 10859 10862 10865 10868 10872 10874 10877 10879 10883 10887 10890 10892 10893 10895 10899 10901 10903 10904 10905 10907 10909 10911 10914 10917 10920 10922 10926 10929 10932 10935 10940 10944 10948 10952 10955 10958 10961 10964 10967 10970 10973 10975 10978 10980 10982 10984 10987 10990
10820 10821 10823 10823 10824 10825 10826 10827 10827 10827 10827 10827 10826 10826 10826 10825 10825 10825 10824 10823 10823 10822 10822 10822 10823 10824 10825 10826 10828 10831 10833 10835 10838 10840 10843 10845 10847 10850 10852 10853 10855 10858 10861 10865 10869 10871 10873 10877 10881 10884 10886 10888 10890 10893 10896 10897 10899 10900 10902 10904 10906 10908 10911 10914 10917 10920 10923 10926 10929 10933 10937 10941 10945 10948 10951 10954 10958 10961 10964 10967 10970 10973 10975 10978 10981 10984 10986 10988
10820 10821 10822 10823 10824 10825 10826 10826 10826 10826 10826 10825 10825 10825 10824 10824 10823 10822 10821 10820 10819 10818 10818 10818 10818 10819 10820 10822 10824 10826 10828 10831 10834 10836 10839 10841 10844 10846 10848 10850 10852 10855 10859 10863 10865 10867 10870 10874 10878 10881 10883 10885 10887 10890 10892 10893 10895 10896 10898 10900 10902 10904 10907 10910 10914 10917 10920 10923 10926 10929 10933 10937 10941 10944 10948 10951 10954 10958 10962 10965 10967 10970 10973 10977 10979 10982 10985 10986
10820 10822 10823 10823 10824 10825 10825 10825 10825 10825 10825 10824 10824 10823 10823 10822 10821 10820 10819 10817 10816 10815 10814 10813 10813 10814 10815 10817 10819 10821 10823 10826 10829 10832 10834 10837 10839 10842 10844 10847 10849 10853 10857 10860 10862 10865 10868 10872 10875 10878 10880 10882 10884 10886 10887 10889 10890 10892 10894 10896 10897 10900 10903 10907 10910 10913 10916 10919 10922 10926 10930 10934 10937 10941 10945 10948 10951 10955 10959 10962 10965 10967 10971 10974 10977 10980 10982 10983
10821 10822 10823 10823 10824 10824 10825 10825 10825 10824 10824 10824 10823 10822 10822 10821 10819 10818 10817 10816 10814 10812 10811 10810 10810 10810 10811 10813 10815 10817 10819 10822 10824 10827 10830 10832 10835 10838 10841 10843 10847 10850 10854 10857 10859 10863 10866 10869 10872 10874 10876 10878 10880 10881 10883 10884 10886 10889 10891 10892 10893 10896 10899 10903 10906 10909 10912 10915 10918 10922 10926 10930 10933 10937 10941 10945 10949 10952 10956 10959 10962 10965 10969 10972 10974 10976 10978 10979
10821 10822 10823 10823 10824 10824 10824 10824 10824 10824 10823 10823 10822 10821 10821 10819 10818 10817 10815 10814 10812 10811 10809 10808 10807 10807 10807 10809 10811 10813 10815 10818 10820 10823 10826 10829 10832 10835 10838 10841 10844 10848 10851 10854 10857 10859 10862 10865 10868 10870 10872 10874 10875 10876 10879 10880 10883 10885 10886 10886 10889 10892 10895 10898 10902 10904 10907 10911 10915 10918 10922 10925 10929 10933 10937 10941 10946 10950 10954 10957 10960 10963 10966 10969 10971 10973 10975 10977
10821 10822 10823 10823 10824 10824 10824 10824 10824 10824 10823 10822 10821 10821 10820 10819 10817 10816 10814 10813 10811 10809 10807 10806 10805 10805 10805 10806 10808 10809 10812 10814 10817 10820 10823 10826 10828 10831 10834 10837 10841 10844 10848 10850 10852 10855 10859 10863 10865 10866 10868 10869 10871 10873 10875 10876 10878 10880 10881 10882 10885 10887 10891 10894 10897 10900 10903 10907 10911 10914 10918 10921 10925 10929 10934 10938 10943 10948 10952 10955 10958 10961 10964 10966 10968 10970 10972 10975
10821 10822 10823 10823 10824 10824 10824 10824 10823 10823 10823 10822 10821 10820 10819 10818 10816 10815 10814 10812 10810 10808 10806 10804 10803 10803 10803 10803 10805 10807 10809 10811 10813 10816 10819 10822 10825 10828 10831 10834 10837 10840 10843 10845 10847 10852 10856 10858 10860 10862 10863 10865 10867 10869 10871 10872 10873 10875 10876 10878 10880 10883 10887 10890 10893 10897 10900 10904 10908 10911 10914 10917 10921 10926 10931 10935 10940 10945 10949 10952 10956 10959 10961 10963 10965 10968 10970 10971
10821 10822 10822 10823 10823 10824 10824 10823 10823 10823 10822 10821 10820 10819 10818 10817 10816 10814 10813 10811 10809 10807 10805 10804 10802 10801 10801 10801 10802 10804 10806 10808 10810 10812 10815 10817 10820 10823 10826 10829 10832 10835 10838 10840 10844 10848 10851 10853 10856 10858 10859 10861 10863 10865 10866 10867 10868 10870 10872 10873 10875 10879 10882 10886 10889 10893 10897 10901 10904 10907 10910 10914 10918 10923 10928 10932 10937 10941 10946 10949 10952 10956 10958 10961 10964 10966 10968 10969
10821 10821 10822 10822 10823 10823 10823 10823 10823 10822 10822 10821 10820 10819 10818 10817 10815 10814 10812 10811 10809 10807 10805 10804 10802 10801 10800 10800 10801 10802 10804 10806 10808 10810 10812 10814 10816 10819 10821 10825 10828 10831 10833 10836 10839 10843 10846 10848 10850 10852 10854 10857 10859 10860 10861 10862 10864 10866 10867 10868 10871 10875 10878 10882 10885 10888 10893 10897 10900 10904 10907 10910 10914 10919 10924 10929 10933 10938 10942 10946 10949 10952 10955 10958 10962 10964 10965 10967
10821 10821 10821 10822 10822 10822 10822 10822 10822 10822 10821 10821 10820 10819 10818 10816 10815 10813 10812 10811 10809 10808 10806 10804 10802 10801 10800 10800 10800 10801 10802 10804 10806 10808 10810 10811 10813 10816 10818 10822 10825 10828 10830 10833 10836 10838 10841 10843 10845 10847 10850 10853 10855 10856 10857 10859 10860 10862 10863 10865 10868 10871 10875 10878 10881 10885 10889 10893 10897 10900 10903 10905 10910 10915 10919 10924 10930 10935 10938 10941 10945 10948 10952 10955 10958 10960 10962 10964
10820 10821 10821 10821 10821 10821 10821 10821 10821 10821 10820 10820 10819 10818 10817 10816 10815 10813 10812 10810 10809 10808 10806 10804 10803 10801 10801 10800 10800 10800 10801 10802 10804 10806 10808 10810 10811 10813 10816 10819 10822 10825 10828 10830 10833 10835 10838 10840 10842 10845 10848 10850 10851 10852 10853 10855 10857 10858 10860 10862 10865 10868 10871 10874 10878 10882 10886 10890 10894 10897 10899 10901 10906 10911 10915 10920 10926 10930 10934 10937 10940 10944 10948 10951 10954 10957 10960 10962
10820 10820 10821 10821 10820 10820 10820 10820 10820 10819 10819 10819 10819 10818 10817 10816 10815 10813 10812 10810 10809 10807 10806 10805 10804 10802 10801 10800 10800 10800 10800 10800 10802 10804 10806 10808 10810 10812 10814 10816 10819 10822 10825 10827 10829 10832 10835 10837 10839 10842 10844 10846 10847 10848 10849 10851 10853 10855 10857 10859 10862 10866 10869 10872 10875 10879 10882 10886 10890 10893 10895 10898 10902 10906 10910 10915 10920 10925 10929 10933 10937 10940 10943 10946 10950 10953 10956 10958
10819 10819 10820 10820 10820 10820 10819 10819 10819 10818 10818 10817 10817 10817 10816 10815 10814 10813 10812 10811 10809 10808 10806 10805 10804 10803 10802 10801 10800 10800 10800 10800 10800 10802 10803 10805 10808 10810 10812 10813 10815 10818 10820 10823 10826 10829 10831 10833 10836 10838 10840 10842 10843 10845 10846 10847 10849 10851 10854 10856 10859 10862 10866 10869 10872 10874 10878 10882 10885 10888 10891 10894 10897 10902 10907 10911 10916 10921 10925 10930 10933 10936 10939 10942 10945 10948 10951 10953
10818 10818 10819 10819 10819 10819 10819 10818 10818 10817 10817 10816 10816 10815 10815 10814 10814 10813 10812 10811 10810 10808 10807 10806 10805 10804 10803 10802 10801 10800 10800 10800 10800 10800 10801 10803 10805 10807 10809 10811 10812 10814 10817 10819 10822 10824 10827 10830 10832 10834 10836 10838 10839 10841 10842 10843 10845 10848 10850 10852 10855 10859 10862 10865 10867 10870 10874 10877 10879 10883 10886 10890 10894 10898 10903 10908 10912 10917 10922 10926 10930 10933 10935 10937 10940 10944 10946 10948
10817 10817 10817 10818 10818 10818 10818 10817 10817 10816 10816 10815 10814 10814 10813 10813 10812 10812 10811 10810 10809 10808 10807 10806 10805 10804 10803 10802 10802 10801 10800 10800 10799 10799 10800 10801 10803 10804 10806 10808 10809 10811 10814 10816 10818 10821 10824 10827 10829 10831 10833 10835 10836 10837 10839 10840 10842 10844 10846 10849 10852 10855 10858 10861 10864 10866 10869 10872 10874 10878 10883 10887 10891 10894 10898 10903 10908 10913 10917 10921 10925 10928 10931 10934 10936 10939 10941 10944
10815 10815 10816 10816 10817 10817 10817 10816 10816 10815 10815 10814 10813 10813 10812 10811 10810 10810 10809 10809 10808 10808 10807 10806 10805 10804 10803 10802 10801 10801 10800 10800 10800 10799 10799 10800 10801 10802 10803 10805 10807 10809 10811 10813 10815 10818 10821 10823 10825 10828 10830 10832 10832 10834 10836 10837 10839 10840 10843 10845 10848 10851 10855 10857 10859 10862 10865 10868 10871 10876 10881 10884 10886 10889 10893 10898 10903 10907 10911 10915 10919 10922 10926 10929 10932 10935 10937 10939
10813 10814 10814 10814 10815 10815 10815 10815 10815 10814 10814 10813 10812 10812 10811 10810 10809 10808 10808 10807 10807 10806 10806 10805 10804 10804 10803 10802 10801 10801 10800 10800 10800 10799 10799 10799 10799 10800 10801 10802 10804 10806 10807 10810 10812 10815 10817 10819 10822 10825 10827 10828 10829 10831 10833 10835 10837 10838 10840 10842 10844 10847 10851 10853 10855 10858 10861 10864 10867 10872 10877 10878 10880 10883 10888 10892 10897 10901 10905 10909 10913 10917 10921 10924 10928 10931 10933 10935
10811 10811 10812 10812 10812 10813 10813 10813 10813 10813 10812 10812 10811 10811 10810 10809 10808 10807 10807 10806 10805 10805 10804 10804 10803 10803 10802 10801 10801 10800 10800 10799 10799 10799 10799 10798 10799 10799 10799 10800 10801 10803 10804 10806 10809 10811 10814 10816 10819 10821 10823 10825 10826 10828 10830 10833 10835 10837 10838 10839 10841 10844 10847 10849 10851 10854 10857 10860 10863 10867 10870 10872 10875 10879 10883 10887 10891 10895 10899 10904 10908 10912 10916 10920 10923 10926 10929 10931
10808 10809 10809 10810 10810 10810 10810 10811 10811 10811 10811 10810 10810 10809 10809 10808 10807 10806 10806 10805 10804 10804 10803 10803 10802 10802 10801 10801 10800 10800 10799 10798 10798 10798 10798 10798 10798 10798 10798 10799 10799 10801 10802 10803 10805 10808 10810 10813 10815 10817 10820 10822 10824 10826 10828 10830 10832 10833 10834 10836 10838 10841 10844 10846 10848 10851 10853 10856 10859 10863 10865 10868 10872 10876 10880 10883 10886 10889 10894 10899 10904 10907 10911 10915 10918 10921 10924 10927